Orbital Elements at Epoch 2459000.5 (2020-May-31.0) TDB
Reference: JPL 18 (heliocentric ecliptic J2000)
Element | Value | Uncertainty (1-sigma) | Units |
e | .1214139258371257 | 5.8231e-08 | |
a | 3.214764250842911 | 2.0974e-08 | au |
q | 2.824447102507227 | 1.822e-07 | au |
i | 6.324847700191764 | 6.9975e-06 | deg |
node | 201.4280536382134 | 3.4376e-05 | deg |
peri | 156.9281325988102 | 4.0365e-05 | deg |
M | 6.814337989813892 | 1.9445e-05 | deg |
tp | 2458960.648626693703 (2020-Apr-21.14862669) | 0.00011369 | TDB |
period | 2105.339419869151 5.76 | 2.0604e-05 5.641e-08 | d yr |
n | .170993805845508 | 1.6734e-09 | deg/d |
Q | 3.605081399178595 | 2.3521e-08 | au |
|
| | Orbit Determination Parameters
Additional Information
|